Regional Weather Roundup
Issued by NWS

Home | Current Version | Previous Version | Graphics & Text | Print | Product List | Glossary On
Versions: 1 2 3 4 5 6 7 8 9 10 11 12 13 14 15 16 17 18 19 20 21 22 23 24 25 26 27 28 29 30 31 32 33 34 35 36 37 38 39 40 41 42 43 44 45 46 47 48 49 50
000
ASUS43 KMKX 240300
RWRWI

WISCONSIN REGIONAL WEATHER ROUNDUP
NATIONAL WEATHER SERVICE MILWAUKEE/SULLIVAN WI
1000 PM CDT THU MAR 23 2017

NOTE: "FAIR" INDICATES FEW OR NO CLOUDS BELOW 12,000 FEET WITH NO
SIGNIFICANT WEATHER AND/OR OBSTRUCTIONS TO VISIBILITY.

WIZ001-002-006>008-014>016-023>028-240400-
NORTHWEST WISCONSIN

CITY           SKY/WX    TMP DP  RH WIND       PRES   REMARKS
SUPERIOR ARPT  MIX PCPN  32  32  99 CALM      29.91F
ASHLAND        MIX PCPN  32  31  96 CALM      29.93F FOG
HAYWARD        CLOUDY    34  30  85 E3        29.89F FOG
SIREN          CLOUDY    33  32  96 E5        29.88F FOG     WCI  29
CUMBERLAND     CLOUDY    34  32  93 CALM      29.86F FOG
RICE LAKE      CLOUDY    37  33  87 SE6       29.89F FOG     WCI  32
CHETEK         CLOUDY    38  35  88 SE6       29.88F WCI  33
LADYSMITH      CLOUDY    39  28  63 S5        29.90F
EAU CLAIRE     CLOUDY    41  33  73 S13       29.86F
MENOMONIE      CLOUDY    40  33  77 SE8       29.86F WCI  35
NEW RICHMOND   CLOUDY    36  35  96 E5        29.85F WCI  32
OSCEOLA        LGT RAIN  37  37 100 NE5       29.89F WCI  33
$$

WIZ003>005-009-010-017-018-240400-
NORTH CENTRAL WISCONSIN

CITY           SKY/WX    TMP DP  RH WIND       PRES   REMARKS
MANITOWISH WTR CLOUDY    32  31  96 W6        29.92R WCI  26
ARBOR VITAE    TSTM      37  32  84 S6        29.89R WCI  32
WOODRUFF       TSTM      37  32  84 S6        29.89R WCI  32
RHINELANDER    CLOUDY    35  28  75 SE3       29.92R
EAGLE RIVER    LGT RAIN  33  24  68 SE5       29.89R WCI  29
LAND O LAKES   MIX PCPN  34  25  69 S7        29.91R WCI  28
PHILLIPS       CLOUDY    36  27  69 S8        29.89R WCI  29
TOMAHAWK       CLOUDY    33  30  91 CALM      29.92R
MEDFORD        CLOUDY    36  27  71 S8        29.88S WCI  29
MERRILL        CLOUDY    37  27  67 S7        29.93R WCI  31
$$

WIZ029-030-035-036-043>047-240400-
CENTRAL WISCONSIN

CITY           SKY/WX    TMP DP  RH WIND       PRES   REMARKS
WAUSAU         CLOUDY    36  28  73 S8        29.90S WCI  30
MOSINEE        CLOUDY    36  28  75 SE10      29.91S WCI  28
MARSHFIELD     CLOUDY    37  30  75 S13       29.90S WCI  29
STEVENS POINT  CLOUDY    36  28  74 S9        29.93F WCI  29
WAUPACA        CLOUDY    37  33  84 SE5       29.94F WCI  33
WAUTOMA        CLOUDY    38  33  82 CALM      29.95F
WISC RAPIDS    CLOUDY    38  32  79 S8        29.94R WCI  32
CAMP DOUGLAS   NOT AVBL
$$

WIZ011>013-019>022-031-037>040-048>050-240400-
NORTHEAST WISCONSIN

CITY           SKY/WX    TMP DP  RH WIND       PRES   REMARKS
ANTIGO         CLOUDY    32  28  85 S10       29.90R WCI  24
SHAWANO        CLOUDY    37  30  75 S6        29.95R WCI  32
OCONTO         CLOUDY    35  29  79 S9        29.97F WCI  27
STURGEON BAY   LGT RAIN  36  30  79 S21G28    29.97F WCI  25
GREEN BAY      CLOUDY    37  32  82 SE13      29.96F WCI  29
MANITOWOC      NOT AVBL
APPLETON       CLOUDY    36  28  75 SE9       29.93F WCI  29
CLINTONVILLE   CLOUDY    36  28  75 S9        29.94F WCI  29
OSHKOSH        CLOUDY    36  31  82 S7        29.94F WCI  30
$$

WIZ032>034-041-042-053>061-240400-
SOUTHWEST WISCONSIN

CITY           SKY/WX    TMP DP  RH WIND       PRES   REMARKS
LA CROSSE      CLOUDY    40  35  83 NE3       29.93S
SPARTA         CLOUDY    38  36  91 N3        29.95R
VIROQUA        CLOUDY    37  34  88 S15       29.90R WCI  28
BOSCOBEL       LGT RAIN  42  34  73 VRB5G18   29.92F
PRAIRIE DU CHI LGT RAIN  40  33  74 SE9       29.92F WCI  34
PLATTEVILLE    CLOUDY    40  33  74 SE8       29.99R WCI  35
$$

WIZ056-057-062-063-064-067-068-240400-
SOUTH CENTRAL WISCONSIN

CITY           SKY/WX    TMP DP  RH WIND       PRES   REMARKS
REEDSBURG      MOCLDY    38  34  85 S16       29.89F WCI  30
BARABOO/DELLS  MOCLDY    38  33  81 S21G28    29.89F WCI  28
LONE ROCK      NOT AVBL
MINERAL POINT  CLOUDY    41  34  75 SE12G17   29.97R
MADISON        CLOUDY    41  33  73 S17       29.96S
MIDDLETON      CLOUDY    41  35  80 S10       29.95F
WATERTOWN      CLOUDY    38  38 100 S6        29.96F WCI  33
MONROE         CLOUDY    39  32  75 SE16      29.95F WCI  30
JANESVILLE     CLOUDY    43  34  70 SE10      29.98F
$$

WIZ051-052-058>065-066-070>072-240400-
SOUTHEAST WISCONSIN

CITY           SKY/WX    TMP DP  RH WIND       PRES   REMARKS
MILWAUKEE      LGT RAIN  40  36  86 S10       29.99F WCI  33
WAUKESHA       LGT RAIN  36  34  93 SE8       29.99F WCI  29
MILWAUKEE/TIMM LGT RAIN  37  32  81 SE8       30.00F WCI  31
RACINE         TSTM      43  34  70 SE13      30.02F
KENOSHA        CLOUDY    42  35  76 E10       30.03F
FOND DU LAC    CLOUDY    38  30  73 S7        29.95R WCI  33
SHEBOYGAN      CLOUDY    38  32  79 MISG      29.97F
WEST BEND      CLOUDY    36  34  93 SE9       29.92F WCI  29
JUNEAU         CLOUDY    37  33  87 S9        29.97S WCI  30
$$

LSZ147-162-240400-
LAKE SUPERIOR

STATION/POSITION TIME  TEMP    WIND        PRES    WAVE
                       AIR SEA DIR/SP/G            HT/PER
                 (UTC) (F)     (DEG/KT/KT) (MB)    (FT/S)
DEVILS ISLAND    0200   33      CALM  /  1 1015.6R
PORT WING        0240   34     130/  2/  6 1012.9F
SAXON HARBOR     0230   35     260/  3/  5 1014.9R
$$

LMZ867-665-643>646-240400-
LAKE MICHIGAN

STATION/POSITION TIME  TEMP    WIND        PRES    WAVE
                       AIR SEA DIR/SP/G            HT/PER
                 (UTC) (F)     (DEG/KT/KT) (MB)    (FT/S)
CHAMBERS ISLAND  0240   37     150/ 11/ 20 1013.5F
NORTHPORT PIER   0240   36     140/  9/ 13 1015.2F
SISTER BAY       0206   34     160/ 19/ 23   N/A
KEWAUNEE LAKESHO 0230   37     170/ 16/ 18 1015.7F
SHEBOYGAN LAKESH 0200   36     160/ 25/ 28 1015.2F
PORT WASHINGTON  0240   38     150/ 18/ 25 1015.6F
MILWAUKEE LAKESH 0230   38     150/ 15/ 16   N/A
KENOSHA   LAKESH 0200   43     330/ 10/ 13 1019.0
$$

TC  - TEMPERATURE IN CELSIUS
VSB - VISIBILITY IN STATUTE MILES
WCI - WIND CHILL INDEX
HX  - HEAT INDEX





USA.gov is the U.S. government's official web portal to all federal, state and local government web resources and services.